User: anonymous   Login
Location: ???????
(55.4362°N, 38.1183°E)
Time: 16:07:42
(UTC+00:00)
Language:

FO-99 - Orbit

View from above orbital plane
View from above orbital plane
View from above satellite
View from above satellite

Ground track
Ground track

The orbit data is extracted from the following two-line orbital elements,

1 43937U 19003F   21336.82218932  .00004462  00000-0  17057-3 0  9998
2 43937  97.1572  13.1716 0023847 132.0142 228.3133 15.26826041159940
Epoch (UTC): 02 December 2021 19:43:57
Eccentricity: 0.0023847
inclination: 97.1572°
perigee height: 469 km
apogee height: 501 km
right ascension of ascending node: 13.1716°
argument of perigee: 132.0142°
revolutions per day: 15.26826041
mean anomaly at epoch: 228.3133°
orbit number at epoch: 15994

The dashed part of the orbit path shows where the satellite is in the earth's shadow,  

DLR